Regional Weather Roundup
Issued by NWS

Home | Current Version | Previous Version | Graphics & Text | Print | Product List | Glossary On
Versions: 1 2 3 4 5 6 7 8 9 10 11 12 13 14 15 16 17 18 19 20 21 22 23 24 25 26 27 28 29 30 31 32 33 34 35 36 37 38 39 40 41 42 43 44 45 46 47 48 49 50
000
ASUS43 KOAX 101910
RWRNE

WEATHER ROUNDUP FOR NEBRASKA
NATIONAL WEATHER SERVICE OMAHA NE
200 PM CDT THU JUL 10 2014

NOTES: SATELLITE DATA IS BEING USED TO AUGMENT CLOUD COVER ABOVE
       12000 FEET.
       "FAIR" INDICATES FEW OR NO CLOUDS BELOW 12,000 FEET WITH NO
       SIGNIFICANT WEATHER AND/OR OBSTRUCTIONS TO VISIBILITY.

  * THESE STATIONS DO NOT REPORT WEATHER SUCH AS RAIN...SNOW OR FOG.

NEZ001>004-019>022-054>056-102000-
NEBRASKA PANHANDLE

CITY           SKY/WX    TMP DP  RH WIND       PRES   REMARKS
SCOTTSBLUFF      N/A     94  57  28 NW7       29.92F HX  92
ALLIANCE       SUNNY     92  52  25 SW13G21   29.91F
CHADRON        SUNNY     90  59  35 NW9G18    29.85F
KIMBALL        SUNNY     91  47  22 W5        29.99F
SIDNEY         SUNNY     92  54  27 S10       29.98F HX  90
$$

NEZ057>060-069>072-079>082-102000-
SOUTHWEST NEBRASKA

CITY           SKY/WX    TMP DP  RH WIND       PRES   REMARKS
NORTH PLATTE   MOSUNNY   84  66  54 S12       29.93F
IMPERIAL       SUNNY     89  60  37 S12       29.94F
LEXINGTON      SUNNY     84  68  57 S20G25    29.94F
MCCOOK         SUNNY     87  66  49 MISG      29.93F
OGALLALA       SUNNY     86  61  43 SW13G18   29.93F
$$

NEZ005>010-023>029-035>040-094-102000-
NORTH CENTRAL NEBRASKA

CITY           SKY/WX    TMP DP  RH WIND       PRES   REMARKS
VALENTINE      SUNNY     86  65  49 S17       29.88F
AINSWORTH      MOSUNNY   82  65  57 S17       29.91F
BROKEN BOW     MOSUNNY   82  69  64 S16G26    29.94F
O`NEILL        MOSUNNY   83  65  54 S17       29.93S
ORD            PTSUNNY   80  68  66 SE14      29.93F
THEDFORD       MOSUNNY   85  65  50 S17G24    29.92F
$$

NEZ041-046>049-061>064-073>077-083>087-102000-
SOUTH CENTRAL NEBRASKA

CITY           SKY/WX    TMP DP  RH WIND       PRES   REMARKS
GRAND ISLAND   PTSUNNY   81  69  67 SE16      29.98F
AURORA         MOSUNNY   81  70  71 S13G18    29.99F
HASTINGS       SUNNY     82  63  52 S12       29.99S
HEBRON         SUNNY     84  67  56 S10G16    29.99F
HOLDREGE       MOSUNNY   81  65  58 S17G23    29.97F
KEARNEY *      PTSUNNY   82  70  65 S17       29.98F
YORK           SUNNY     79  70  73 S10       29.99F
$$

NEZ011>018-030>034-042>045-102000-
NORTHEAST NEBRASKA

CITY           SKY/WX    TMP DP  RH WIND       PRES   REMARKS
NORFOLK        SUNNY     83  65  54 S20G25    29.95F
ALBION         PTSUNNY   78  65  64 S13G18    29.97F
BLAIR          SUNNY     82  66  58 SE16      30.00F
FREMONT        MOSUNNY   84  66  53 S15G21    29.99F
TEKAMAH        SUNNY     87  65  47 SE22G30   29.98F
WAYNE          MOSUNNY   84  67  56 S17G26    29.96F
$$

NEZ050>053-065>068-078-088>093-102000-
SOUTHEAST NEBRASKA

CITY           SKY/WX    TMP DP  RH WIND       PRES   REMARKS
LINCOLN        SUNNY     85  64  49 S21G28    29.99F
OMAHA EPPLEY   MOSUNNY   83  64  52 SE20G26   30.00F
BEATRICE       SUNNY     80  66  61 S12       30.00F
FALLS CITY     SUNNY     84  66  54 SE17      30.01F
NEBRASKA CITY  SUNNY     81  67  62 S12       30.02F
PLATTSMOUTH    SUNNY     82  64  54 S13G22    30.02F
$$

NEZ044-045-051>053-067-102000-
OMAHA AREA

CITY           SKY/WX    TMP DP  RH WIND       PRES   REMARKS
OMAHA EPPLEY   MOSUNNY   83  64  52 SE20G26   30.00F
BLAIR          SUNNY     82  66  58 SE16      30.00F
FREMONT        MOSUNNY   84  66  53 S15G21    29.99F
MILLARD        SUNNY     83  67  59 SE17G23   30.00F
OFFUTT AFB     SUNNY     83  68  60 SE17G23   30.01F
PLATTSMOUTH    SUNNY     82  64  54 S13G22    30.02F
WAHOO          FAIR      85  65  51 S16G24    29.99S
$$


USA.gov is the U.S. government's official web portal to all federal, state and local government web resources and services.